Tracking 20242 objects as of 25-Jan-2020
HD Live streaming from Space Station
objects crossing your sky now

PSLV DEB

Track PSLV DEB now!
10-day predictions


NORAD ID: 35345
Int'l Code: 2001-049QD
Perigee: 647.3 km
Apogee: 737.1 km
Inclination: 98.1 °
Period: 98.5 minutes
Semi major axis: 7063 km
RCS: 0.004 m2 (small)
Launch date: October 22, 2001
Source: India (IND)
Launch site: SRIHARIKOTA (SRI)

Note: This is SATELLITE DEBRIS
aabbcc
Your satellite tracking list
Your tracking list is empty




NASA's NSSDC Master Catalog

Two Line Element Set (TLE):
1 35345U 01049QD  20024.20532530  .00000570  00000-0  11901-3 0  9999
2 35345  98.1252  10.1458 0063536 317.5706  42.0593 14.62521062841263
Source of the keplerian elements: AFSPC